Location: Azul
(36.7830°S, 59.8500°W)
Time: 18:08:21
(UTC-03:00)

BUGSAT 1 - Pass Details

Date: 28 October 2021
Orbit: 558 x 600 km, 98.1° (Epoch: 06 December)

Event Time Altitude Azimuth Distance (km) Brightness Sun altitude
Rises 04:27:44 0° 36° (NE) 2,810 ? -17.3°
Reaches altitude 10° 04:30:01 10° 45° (NE) 1,925 ? -16.9°
Maximum altitude 04:33:45 33° 109° (ESE) 1,028 ? -16.3°
Drops below altitude 10° 04:37:35 10° 172° (S) 1,968 ? -15.6°
Sets 04:39:56 0° 181° (S) 2,884 ? -15.2°
